Regional Weather Roundup
Issued by NWS

Home | Current Version | Previous Version | Graphics & Text | Print | Product List | Glossary On
Versions: 1 2 3 4 5 6 7 8 9 10 11 12 13 14 15 16 17 18 19 20 21 22 23 24 25 26 27 28 29 30 31 32 33 34 35 36 37 38 39 40 41 42 43 44 45 46 47 48 49 50
000
ASUS44 KMEG 241500
RWRTN
TENNESSEE HOURLY STATE WEATHER ROUNDUP
NATIONAL WEATHER SERVICE MEMPHIS TN
1000 AM CDT THU APR 24 2014

TNZ002-004-019-021-049-052-054-088>092-241600-
WEST TENNESSEE

CITY           SKY/WX    TMP DP  RH WIND       PRES   REMARKS
MEMPHIS INTL   PTSUNNY   69  45  41 S8        29.90F
NWS MEMPHIS      N/A     69 N/A N/A MISG        N/A
JACKSON        MOSUNNY   69  40  34 S9        29.93F
DYERSBURG      PTSUNNY   66  39  37 SE9       29.92F
UNION CITY     SUNNY     64  43  45 S9        29.91F
LEXINGTON      SUNNY     66  43  42 S6        29.95F
$$

TNZ008-025-027-028-033-062-065-066-241600-
NORTH MIDDLE TENNESSEE

CITY           SKY/WX    TMP DP  RH WIND       PRES   REMARKS
NASHVILLE      PTSUNNY   65  40  39 S8        30.00F
CLARKSVILLE    SUNNY     62  40  44 S8        29.97F
COOKEVILLE     SUNNY     66  37  34 S9        30.02R
CROSSVILLE     SUNNY     64  28  25 S8        30.05R
$$

TNZ061-075-076-078-094-096-097-241600-
SOUTH MIDDLE TENNESSEE

CITY           SKY/WX    TMP DP  RH WIND       PRES   REMARKS
WINCHESTER     SUNNY     66  36  32 SE14      30.03R
MCMINNVILLE    SUNNY     70  37  30 SE7       30.01S
COLUMBIA       SUNNY     68  52  56 S8        29.98S
$$

TNZ017-018-042-046-047-241600-
NORTHEAST TENNESSEE

CITY           SKY/WX    TMP DP  RH WIND       PRES   REMARKS
TRI CITIES     PTSUNNY   61  32  33 VRB5      30.08S
ELIZABETHTON   SUNNY     61  32  33 CALM      30.08S
$$

TNZ012-013-036-069-073-074-241600-
CENTRAL EAST TENNESSEE

CITY           SKY/WX    TMP DP  RH WIND       PRES   REMARKS
KNOXVILLE      MOSUNNY   60  35  39 CALM      30.04F
OAK RIDGE      SUNNY     63  35  35 VRB3      30.07S
$$

TNZ083-085-099-241600-
SOUTHEAST TENNESSEE

CITY           SKY/WX    TMP DP  RH WIND       PRES   REMARKS
CHATTANOOGA    MOSUNNY   63  38  39 SW6       30.06R
$$

SKY/WX REPORTED AS FAIR MEANS FEW OR NO CLOUDS BELOW
12 THOUSAND FEET.




USA.gov is the U.S. government's official web portal to all federal, state and local government web resources and services.